UKV21MR EGKK-ENBR

Flight info

Callsign UKV21MR
Flight time 1h 29m
Altitude 37000
Route FRANE M604 GIVPO DCT GIBSU DCT ALOTI DCT ALUVA
Aircraft A320/M-SDE3FGHIRWY/LB1

Departure

Time 2026-05-05 16:50
Airport London Gatwick Airport (EGKK)

Arrival

Time 2026-05-05 18:20
Airport Bergen Airport, Flesland (ENBR)
Time Latitude Longitude Altitude Speed Heading
2026-05-05 16:15 51.15660 -0.17699 213 ft 0 kts 167°
2026-05-05 16:34 51.15682 -0.17706 217 ft 4 kts 173°
2026-05-05 16:34 51.15709 -0.17708 213 ft 4 kts 187°
2026-05-05 16:34 51.15733 -0.17696 217 ft 4 kts 227°
2026-05-05 16:35 51.15740 -0.17677 211 ft 1 kts 255°
2026-05-05 16:35 51.15740 -0.17674 211 ft 0 kts 255°
2026-05-05 16:38 51.15740 -0.17675 211 ft 1 kts 255°
2026-05-05 16:38 51.15734 -0.17714 214 ft 7 kts 255°
2026-05-05 16:38 51.15719 -0.17815 214 ft 12 kts 257°
2026-05-05 16:38 51.15696 -0.17972 205 ft 17 kts 257°
2026-05-05 16:39 51.15670 -0.18154 207 ft 16 kts 257°
2026-05-05 16:39 51.15649 -0.18316 210 ft 14 kts 259°
2026-05-05 16:39 51.15631 -0.18460 216 ft 12 kts 259°
2026-05-05 16:39 51.15615 -0.18588 214 ft 11 kts 258°
2026-05-05 16:40 51.15600 -0.18699 211 ft 10 kts 258°
2026-05-05 16:40 51.15586 -0.18805 210 ft 9 kts 254°
2026-05-05 16:40 51.15533 -0.18826 207 ft 9 kts 172°
2026-05-05 16:40 51.15462 -0.18802 214 ft 12 kts 168°
2026-05-05 16:41 51.15367 -0.18769 211 ft 16 kts 167°
2026-05-05 16:41 51.15253 -0.18729 211 ft 18 kts 167°
2026-05-05 16:41 51.15137 -0.18735 215 ft 18 kts 227°
2026-05-05 16:41 51.15106 -0.18912 206 ft 16 kts 257°
2026-05-05 16:42 51.15083 -0.19070 210 ft 14 kts 257°
2026-05-05 16:42 51.15064 -0.19209 205 ft 12 kts 258°
2026-05-05 16:42 51.15048 -0.19332 205 ft 10 kts 258°
2026-05-05 16:42 51.15034 -0.19442 205 ft 11 kts 258°
2026-05-05 16:43 51.15013 -0.19593 211 ft 17 kts 257°
2026-05-05 16:43 51.14986 -0.19788 208 ft 17 kts 258°
2026-05-05 16:43 51.14963 -0.19962 205 ft 15 kts 258°
2026-05-05 16:43 51.14941 -0.20120 215 ft 14 kts 258°
2026-05-05 16:44 51.14922 -0.20260 207 ft 12 kts 257°
2026-05-05 16:44 51.14904 -0.20384 204 ft 11 kts 257°
2026-05-05 16:44 51.14888 -0.20494 206 ft 9 kts 257°
2026-05-05 16:44 51.14875 -0.20588 210 ft 9 kts 257°
2026-05-05 16:45 51.14863 -0.20666 205 ft 13 kts 257°
2026-05-05 16:45 51.14839 -0.20830 215 ft 15 kts 257°
2026-05-05 16:45 51.14810 -0.21031 215 ft 13 kts 257°
2026-05-05 16:45 51.14797 -0.21120 212 ft 12 kts 257°
2026-05-05 16:46 51.14777 -0.21242 208 ft 12 kts 254°
2026-05-05 16:46 51.14748 -0.21382 214 ft 13 kts 233°
2026-05-05 16:46 51.14674 -0.21363 214 ft 11 kts 141°
2026-05-05 16:46 51.14624 -0.21328 205 ft 0 kts 165°
2026-05-05 16:48 51.14606 -0.21320 209 ft 6 kts 165°
2026-05-05 16:49 51.14545 -0.21278 211 ft 12 kts 139°
2026-05-05 16:49 51.14525 -0.21156 215 ft 12 kts 76°
2026-05-05 16:49 51.14544 -0.21026 211 ft 13 kts 77°
2026-05-05 16:49 51.14573 -0.20789 209 ft 44 kts 79°
2026-05-05 16:50 51.14688 -0.19935 212 ft 110 kts 78°
2026-05-05 16:50 51.14890 -0.18466 214 ft 160 kts 78°
2026-05-05 16:50 51.15136 -0.16676 705 ft 168 kts 77°
2026-05-05 16:50 51.15387 -0.14881 1539 ft 164 kts 76°
2026-05-05 16:51 51.15654 -0.13030 1921 ft 183 kts 75°
2026-05-05 16:51 51.15952 -0.10928 2200 ft 205 kts 76°
2026-05-05 16:51 51.16274 -0.08583 2549 ft 229 kts 77°
2026-05-05 16:51 51.16625 -0.05983 3042 ft 249 kts 76°
2026-05-05 16:52 51.16899 -0.03200 3842 ft 258 kts 88°
2026-05-05 16:52 51.16843 -0.00354 4711 ft 263 kts 89°
2026-05-05 16:52 51.16784 0.02589 5593 ft 268 kts 89°
2026-05-05 16:52 51.16729 0.05593 6480 ft 273 kts 89°
2026-05-05 16:53 51.16672 0.08646 7287 ft 277 kts 89°
2026-05-05 16:53 51.16614 0.11745 8117 ft 281 kts 90°
2026-05-05 16:53 51.16554 0.14883 8951 ft 285 kts 90°
2026-05-05 16:53 51.16518 0.18070 9780 ft 289 kts 89°
2026-05-05 16:54 51.16523 0.21289 10558 ft 292 kts 89°
2026-05-05 16:54 51.16539 0.24540 11350 ft 294 kts 88°
2026-05-05 16:54 51.16556 0.27805 12160 ft 295 kts 89°
2026-05-05 16:54 51.16573 0.31048 12928 ft 297 kts 88°
2026-05-05 16:55 51.16898 0.34284 13708 ft 298 kts 69°
2026-05-05 16:55 51.17956 0.37111 14405 ft 300 kts 47°
2026-05-05 16:55 51.19560 0.39279 15025 ft 304 kts 38°
2026-05-05 16:55 51.21237 0.41343 15708 ft 305 kts 38°
2026-05-05 16:56 51.22933 0.43421 16334 ft 309 kts 37°
2026-05-05 16:56 51.24648 0.45530 16966 ft 312 kts 37°
2026-05-05 16:56 51.26373 0.47658 17627 ft 314 kts 37°
2026-05-05 16:56 51.28117 0.49814 18195 ft 319 kts 37°
2026-05-05 16:57 51.29855 0.51968 18755 ft 321 kts 37°
2026-05-05 16:57 51.31631 0.54176 19257 ft 325 kts 38°
2026-05-05 16:57 51.33424 0.56409 19619 ft 328 kts 37°
2026-05-05 16:57 51.35234 0.58667 20152 ft 331 kts 38°
2026-05-05 16:58 51.37075 0.60935 20643 ft 335 kts 34°
2026-05-05 16:58 51.39122 0.62752 21131 ft 339 kts 23°
2026-05-05 16:58 51.41389 0.63901 21268 ft 353 kts 13°
2026-05-05 16:58 51.43839 0.64817 21405 ft 368 kts 13°
2026-05-05 16:59 51.46380 0.65764 21538 ft 381 kts 13°
2026-05-05 16:59 51.49009 0.66748 21682 ft 393 kts 13°
2026-05-05 16:59 51.51715 0.67766 21894 ft 402 kts 13°
2026-05-05 16:59 51.54458 0.68805 22269 ft 407 kts 13°
2026-05-05 17:00 51.57225 0.69859 22679 ft 410 kts 13°
2026-05-05 17:00 51.59980 0.70913 23111 ft 414 kts 13°
2026-05-05 17:00 51.62790 0.71985 23509 ft 417 kts 13°
2026-05-05 17:00 51.65629 0.73067 23853 ft 420 kts 13°
2026-05-05 17:01 51.68495 0.74160 24200 ft 423 kts 13°
2026-05-05 17:01 51.71376 0.75263 24521 ft 426 kts 13°
2026-05-05 17:01 51.74279 0.76374 24849 ft 429 kts 13°
2026-05-05 17:01 51.77192 0.77491 25163 ft 432 kts 13°
2026-05-05 17:02 51.80040 0.78925 25458 ft 435 kts 22°
2026-05-05 17:02 51.82766 0.81097 25769 ft 439 kts 31°
2026-05-05 17:02 51.85279 0.83929 26058 ft 442 kts 40°
2026-05-05 17:02 51.87591 0.87239 26388 ft 444 kts 42°
2026-05-05 17:03 51.89890 0.90583 26705 ft 446 kts 42°
2026-05-05 17:03 51.92208 0.93943 27044 ft 448 kts 42°
2026-05-05 17:03 51.94543 0.97328 27366 ft 450 kts 42°
2026-05-05 17:03 51.96887 1.00732 27684 ft 452 kts 43°
2026-05-05 17:04 51.99240 1.04160 28002 ft 455 kts 43°
2026-05-05 17:04 52.01566 1.07562 28303 ft 457 kts 43°
2026-05-05 17:04 52.03937 1.11034 28589 ft 459 kts 43°
2026-05-05 17:04 52.06412 1.14344 28876 ft 461 kts 38°
2026-05-05 17:05 52.08989 1.17481 29156 ft 463 kts 38°
2026-05-05 17:05 52.11577 1.20645 29430 ft 465 kts 38°
2026-05-05 17:05 52.14114 1.23848 29685 ft 467 kts 40°
2026-05-05 17:05 52.16640 1.27210 29954 ft 469 kts 41°
2026-05-05 17:06 52.19141 1.30649 30276 ft 468 kts 41°
2026-05-05 17:06 52.21618 1.34105 30599 ft 468 kts 41°
2026-05-05 17:06 52.24105 1.37576 30914 ft 468 kts 41°
2026-05-05 17:06 52.26553 1.40973 31221 ft 467 kts 41°
2026-05-05 17:07 52.29044 1.44402 31533 ft 468 kts 40°
2026-05-05 17:07 52.31547 1.47823 31794 ft 469 kts 40°
2026-05-05 17:07 52.34014 1.51324 32048 ft 469 kts 45°
2026-05-05 17:07 52.36310 1.55128 32333 ft 469 kts 46°
2026-05-05 17:08 52.38596 1.58955 32637 ft 469 kts 46°
2026-05-05 17:08 52.40847 1.62736 32940 ft 469 kts 46°
2026-05-05 17:08 52.43117 1.66560 33253 ft 468 kts 46°
2026-05-05 17:08 52.45387 1.70397 33559 ft 468 kts 47°
2026-05-05 17:09 52.47656 1.74239 33872 ft 468 kts 47°
2026-05-05 17:09 52.49924 1.78079 34156 ft 467 kts 46°
2026-05-05 17:09 52.52193 1.81917 34396 ft 468 kts 46°
2026-05-05 17:09 52.54436 1.85715 34420 ft 469 kts 46°
2026-05-05 17:10 52.58978 1.93426 34522 ft 468 kts 46°
2026-05-05 17:10 52.61247 1.97291 34636 ft 468 kts 46°
2026-05-05 17:10 52.63513 2.01159 34762 ft 469 kts 47°
2026-05-05 17:11 52.65775 2.05030 34874 ft 469 kts 47°
2026-05-05 17:11 52.68013 2.08873 35002 ft 470 kts 47°
2026-05-05 17:11 52.70274 2.12766 35126 ft 470 kts 47°
2026-05-05 17:11 52.72543 2.16677 35249 ft 470 kts 47°
2026-05-05 17:12 52.74806 2.20576 35380 ft 470 kts 46°
2026-05-05 17:12 52.77076 2.24486 35555 ft 471 kts 46°
2026-05-05 17:12 52.79341 2.28390 35767 ft 471 kts 46°
2026-05-05 17:12 52.81582 2.32256 35979 ft 471 kts 46°
2026-05-05 17:13 52.83846 2.36170 36190 ft 471 kts 46°
2026-05-05 17:13 52.86110 2.40095 36401 ft 471 kts 46°
2026-05-05 17:13 52.88365 2.44017 36603 ft 470 kts 47°
2026-05-05 17:13 52.90625 2.47956 36800 ft 470 kts 47°
2026-05-05 17:14 52.92879 2.51888 36956 ft 471 kts 47°
2026-05-05 17:14 52.95140 2.55839 36969 ft 472 kts 47°
2026-05-05 17:14 53.00098 2.62948 36970 ft 472 kts 31°
2026-05-05 17:15 53.05883 2.67950 36974 ft 472 kts 25°
2026-05-05 17:15 53.11769 2.72834 36973 ft 472 kts 25°
2026-05-05 17:16 53.17652 2.77749 36977 ft 472 kts 25°
2026-05-05 17:16 53.23499 2.82644 36986 ft 472 kts 25°
2026-05-05 17:17 53.29598 2.86561 36981 ft 468 kts 10°
2026-05-05 17:17 53.36043 2.87700 36990 ft 465 kts
2026-05-05 17:18 53.42516 2.88377 36987 ft 465 kts
2026-05-05 17:18 53.48953 2.89076 36986 ft 466 kts
2026-05-05 17:19 53.55431 2.89779 36983 ft 465 kts
2026-05-05 17:19 53.61901 2.90466 36984 ft 465 kts
2026-05-05 17:20 53.68338 2.91154 36984 ft 465 kts
2026-05-05 17:20 53.74811 2.91846 37000 ft 465 kts
2026-05-05 17:21 53.81269 2.92548 36997 ft 465 kts
2026-05-05 17:22 53.90921 2.93610 37000 ft 464 kts
2026-05-05 17:22 53.97381 2.94312 37001 ft 464 kts
2026-05-05 17:23 54.03834 2.95009 36995 ft 463 kts
2026-05-05 17:23 54.10234 2.95707 36991 ft 463 kts
2026-05-05 17:24 54.16676 2.96421 36989 ft 463 kts
2026-05-05 17:24 54.23110 2.97130 37000 ft 463 kts
2026-05-05 17:25 54.29547 2.97844 37000 ft 462 kts
2026-05-05 17:25 54.35936 2.98546 36993 ft 462 kts
2026-05-05 17:26 54.42367 2.99258 36989 ft 462 kts
2026-05-05 17:26 54.48791 2.99990 36999 ft 462 kts
2026-05-05 17:27 54.55223 3.00720 36994 ft 462 kts
2026-05-05 17:27 54.61646 3.01442 36990 ft 462 kts
2026-05-05 17:28 54.68033 3.02142 36989 ft 462 kts
2026-05-05 17:28 54.74461 3.02855 36997 ft 462 kts
2026-05-05 17:29 54.80886 3.03591 36992 ft 462 kts
2026-05-05 17:29 54.86227 3.04200 36990 ft 461 kts
2026-05-05 17:30 54.93699 3.05077 36985 ft 461 kts
2026-05-05 17:30 54.99028 3.05682 36993 ft 461 kts
2026-05-05 17:31 55.05442 3.06414 36986 ft 461 kts
2026-05-05 17:31 55.11817 3.07142 36982 ft 461 kts
2026-05-05 17:32 55.18232 3.07878 36983 ft 461 kts
2026-05-05 17:32 55.24642 3.08622 37003 ft 461 kts
2026-05-05 17:33 55.31050 3.09377 36993 ft 461 kts
2026-05-05 17:33 55.37414 3.10120 36986 ft 461 kts
2026-05-05 17:34 55.43832 3.10876 36994 ft 461 kts
2026-05-05 17:34 55.50243 3.11620 37010 ft 461 kts 360°
2026-05-05 17:35 55.56618 3.12363 37006 ft 461 kts 360°
2026-05-05 17:35 55.63024 3.13130 37002 ft 461 kts 360°
2026-05-05 17:36 55.69438 3.13895 37006 ft 461 kts 360°
2026-05-05 17:36 55.75806 3.14647 37031 ft 461 kts 359°
2026-05-05 17:37 55.82218 3.15416 37020 ft 461 kts 359°
2026-05-05 17:37 55.88590 3.16178 37010 ft 461 kts 359°
2026-05-05 17:38 55.94999 3.16951 37007 ft 461 kts 359°
2026-05-05 17:38 56.01408 3.17721 37002 ft 461 kts 359°
2026-05-05 17:39 56.07773 3.18491 36998 ft 461 kts 359°
2026-05-05 17:39 56.14182 3.19271 36997 ft 461 kts 359°
2026-05-05 17:40 56.20592 3.20054 36996 ft 460 kts 359°
2026-05-05 17:40 56.26943 3.20831 37025 ft 460 kts 359°
2026-05-05 17:41 56.33356 3.21616 37009 ft 461 kts 359°
2026-05-05 17:41 56.39726 3.22405 37010 ft 461 kts 359°
2026-05-05 17:42 56.46143 3.23196 37010 ft 461 kts 359°
2026-05-05 17:42 56.52554 3.23978 37017 ft 461 kts 359°
2026-05-05 17:43 56.58918 3.24770 37057 ft 461 kts 359°
2026-05-05 17:43 56.65326 3.25560 37048 ft 461 kts 359°
2026-05-05 17:44 56.71726 3.26360 37053 ft 461 kts 359°
2026-05-05 17:44 56.78086 3.27269 37048 ft 462 kts
2026-05-05 17:45 56.84496 3.28970 37071 ft 464 kts
2026-05-05 17:45 56.90821 3.31050 37065 ft 464 kts
2026-05-05 17:46 56.97206 3.33054 37054 ft 464 kts
2026-05-05 17:46 57.03584 3.34891 37056 ft 463 kts
2026-05-05 17:47 57.09930 3.36699 37081 ft 463 kts
2026-05-05 17:47 57.16315 3.38548 37074 ft 463 kts
2026-05-05 17:48 57.22692 3.40421 37065 ft 463 kts
2026-05-05 17:48 57.29025 3.42306 37061 ft 463 kts
2026-05-05 17:49 57.35397 3.44202 37083 ft 463 kts
2026-05-05 17:49 57.41773 3.46094 37075 ft 463 kts
2026-05-05 17:50 57.48147 3.47976 37069 ft 463 kts
2026-05-05 17:50 57.54472 3.49856 37065 ft 463 kts
2026-05-05 17:51 57.60840 3.51767 37099 ft 463 kts
2026-05-05 17:51 57.67206 3.53698 37083 ft 463 kts
2026-05-05 17:52 57.73531 3.55605 37078 ft 463 kts
2026-05-05 17:52 57.79893 3.57537 37066 ft 463 kts
2026-05-05 17:53 57.86236 3.59895 37061 ft 469 kts 14°
2026-05-05 17:53 57.92385 3.63926 37067 ft 470 kts 14°
2026-05-05 17:54 57.98558 3.68023 37052 ft 470 kts 14°
2026-05-05 17:54 58.04746 3.72146 37047 ft 471 kts 14°
2026-05-05 17:55 58.10935 3.76272 37041 ft 471 kts 14°
2026-05-05 17:55 58.17124 3.80418 37055 ft 472 kts 14°
2026-05-05 17:55 58.20221 3.82499 36783 ft 472 kts 13°
2026-05-05 17:56 58.23279 3.84564 36523 ft 471 kts 13°
2026-05-05 17:56 58.26366 3.86649 36270 ft 471 kts 13°
2026-05-05 17:56 58.29464 3.88744 36018 ft 471 kts 13°
2026-05-05 17:56 58.32550 3.90834 35770 ft 471 kts 13°
2026-05-05 17:57 58.35634 3.92922 35523 ft 470 kts 13°
2026-05-05 17:57 58.38717 3.95008 35279 ft 470 kts 13°
2026-05-05 17:57 58.41806 3.97098 35079 ft 470 kts 12°
2026-05-05 17:57 58.44896 3.99199 34837 ft 471 kts 12°
2026-05-05 17:58 58.47986 4.01304 34600 ft 471 kts 12°
2026-05-05 17:58 58.51078 4.03414 34364 ft 471 kts 12°
2026-05-05 17:58 58.54128 4.05500 34141 ft 471 kts 12°
2026-05-05 17:58 58.57211 4.07616 33879 ft 471 kts 12°
2026-05-05 17:59 58.60307 4.09751 33604 ft 471 kts 12°
2026-05-05 17:59 58.63400 4.11892 33322 ft 472 kts 12°
2026-05-05 17:59 58.66489 4.14034 33048 ft 472 kts 12°
2026-05-05 17:59 58.69594 4.16187 32677 ft 473 kts 12°
2026-05-05 18:00 58.72674 4.18318 31490 ft 481 kts 12°
2026-05-05 18:00 58.75845 4.20503 30499 ft 486 kts 12°
2026-05-05 18:00 58.79070 4.22775 29394 ft 490 kts 13°
2026-05-05 18:00 58.82202 4.25104 28792 ft 484 kts 14°
2026-05-05 18:01 58.85308 4.27507 28093 ft 478 kts 14°
2026-05-05 18:01 58.88379 4.29928 27418 ft 473 kts 15°
2026-05-05 18:01 58.91406 4.32320 26750 ft 467 kts 15°
2026-05-05 18:01 58.94398 4.34672 26096 ft 462 kts 14°
2026-05-05 18:02 58.97366 4.36987 25473 ft 458 kts 14°
2026-05-05 18:02 59.00325 4.39276 24803 ft 454 kts 14°
2026-05-05 18:02 59.03255 4.41540 24181 ft 450 kts 14°
2026-05-05 18:02 59.06113 4.43753 23574 ft 446 kts 14°
2026-05-05 18:03 59.08984 4.45980 22947 ft 440 kts 14°
2026-05-05 18:03 59.11812 4.48182 22392 ft 434 kts 14°
2026-05-05 18:03 59.14592 4.50362 21881 ft 427 kts 14°
2026-05-05 18:03 59.17329 4.52518 21369 ft 421 kts 14°
2026-05-05 18:04 59.20022 4.54641 20891 ft 414 kts 14°
2026-05-05 18:04 59.22680 4.56727 20395 ft 409 kts 13°
2026-05-05 18:04 59.25319 4.58794 19921 ft 405 kts 13°
2026-05-05 18:04 59.27894 4.60810 19407 ft 402 kts 13°
2026-05-05 18:05 59.30479 4.62840 18902 ft 398 kts 13°
2026-05-05 18:05 59.33040 4.64864 18404 ft 395 kts 13°
2026-05-05 18:05 59.35582 4.66878 17828 ft 392 kts 13°
2026-05-05 18:05 59.38098 4.68875 17318 ft 387 kts 14°
2026-05-05 18:06 59.40591 4.70857 16804 ft 383 kts 14°
2026-05-05 18:06 59.42223 4.72154 16469 ft 381 kts 15°
2026-05-05 18:06 59.45463 4.74725 15795 ft 376 kts 15°
2026-05-05 18:06 59.47885 4.76649 15283 ft 373 kts 16°
2026-05-05 18:07 59.50287 4.78564 14790 ft 370 kts 17°
2026-05-05 18:07 59.52667 4.80467 14300 ft 367 kts 18°
2026-05-05 18:07 59.55031 4.82360 13782 ft 365 kts 18°
2026-05-05 18:07 59.57373 4.84242 13240 ft 361 kts 18°
2026-05-05 18:08 59.59653 4.86081 12750 ft 356 kts 19°
2026-05-05 18:08 59.61930 4.87924 12247 ft 351 kts 19°
2026-05-05 18:08 59.64181 4.89748 11753 ft 347 kts 19°
2026-05-05 18:08 59.66405 4.91545 11238 ft 342 kts 19°
2026-05-05 18:09 59.68603 4.93316 10747 ft 338 kts 19°
2026-05-05 18:09 59.70762 4.95059 10477 ft 328 kts 19°
2026-05-05 18:09 59.72804 4.96721 10350 ft 315 kts 19°
2026-05-05 18:09 59.74791 4.98342 10220 ft 303 kts 19°
2026-05-05 18:10 59.76707 4.99904 10097 ft 292 kts 19°
2026-05-05 18:10 59.78557 5.01409 10012 ft 282 kts 19°
2026-05-05 18:10 59.80370 5.02884 10029 ft 281 kts 19°
2026-05-05 18:10 59.82176 5.04354 10025 ft 280 kts 19°
2026-05-05 18:11 59.83988 5.05829 10023 ft 280 kts 19°
2026-05-05 18:11 59.85795 5.07300 9784 ft 280 kts 19°
2026-05-05 18:11 59.87601 5.08776 9007 ft 280 kts 19°
2026-05-05 18:11 59.89385 5.10237 8206 ft 281 kts 19°
2026-05-05 18:12 59.91196 5.11724 7421 ft 281 kts 20°
2026-05-05 18:12 59.93002 5.13207 6649 ft 280 kts 20°
2026-05-05 18:12 59.94800 5.14687 5977 ft 275 kts 20°
2026-05-05 18:12 59.96532 5.16118 5507 ft 262 kts 20°
2026-05-05 18:13 59.98185 5.17486 5088 ft 252 kts 20°
2026-05-05 18:13 59.99768 5.18796 4677 ft 245 kts 20°
2026-05-05 18:13 60.01329 5.20085 4270 ft 239 kts 20°
2026-05-05 18:13 60.02838 5.21329 4057 ft 227 kts 20°
2026-05-05 18:14 60.04259 5.22506 4003 ft 218 kts 20°
2026-05-05 18:14 60.05651 5.23660 3916 ft 213 kts 20°
2026-05-05 18:14 60.06988 5.24771 3822 ft 203 kts 20°
2026-05-05 18:14 60.08269 5.25837 3736 ft 196 kts 19°
2026-05-05 18:15 60.09500 5.26859 3660 ft 190 kts 20°
2026-05-05 18:15 60.10704 5.27657 3584 ft 174 kts
2026-05-05 18:15 60.11856 5.27650 3495 ft 160 kts 348°
2026-05-05 18:15 60.12938 5.27290 3327 ft 155 kts 348°
2026-05-05 18:16 60.13645 5.27055 3200 ft 154 kts 348°
2026-05-05 18:16 60.14693 5.26707 2990 ft 152 kts 348°
2026-05-05 18:16 60.15728 5.26362 2794 ft 149 kts 348°
2026-05-05 18:16 60.16738 5.26026 2590 ft 148 kts 347°
2026-05-05 18:17 60.17776 5.25679 2372 ft 153 kts 348°
2026-05-05 18:17 60.18816 5.25333 2152 ft 152 kts 348°
2026-05-05 18:17 60.19861 5.24985 1938 ft 153 kts 349°
2026-05-05 18:17 60.20913 5.24634 1724 ft 152 kts 348°
2026-05-05 18:18 60.21958 5.24285 1517 ft 147 kts 348°
2026-05-05 18:18 60.22918 5.23966 1309 ft 135 kts 348°
2026-05-05 18:18 60.23837 5.23658 1107 ft 133 kts 348°
2026-05-05 18:18 60.24742 5.23344 929 ft 131 kts 347°
2026-05-05 18:19 60.25649 5.23055 739 ft 132 kts 347°
2026-05-05 18:19 60.26537 5.22713 556 ft 131 kts 348°
2026-05-05 18:19 60.27446 5.22489 386 ft 134 kts 348°
2026-05-05 18:19 60.28382 5.22130 178 ft 137 kts 348°
2026-05-05 18:20 60.29167 5.21859 160 ft 77 kts 350°
2026-05-05 18:20 60.29461 5.21761 152 ft 31 kts 350°
2026-05-05 18:20 60.29673 5.21709 146 ft 30 kts
2026-05-05 18:20 60.29720 5.21845 148 ft 4 kts 88°
2026-05-05 18:21 60.29720 5.21862 148 ft 0 kts 88°
2026-05-05 18:21 60.29721 5.21910 149 ft 14 kts 88°
2026-05-05 18:21 60.29600 5.22040 153 ft 26 kts 168°
2026-05-05 18:21 60.29430 5.22113 161 ft 24 kts 170°
2026-05-05 18:22 60.29270 5.22164 166 ft 22 kts 172°
2026-05-05 18:22 60.29124 5.22203 173 ft 19 kts 171°
2026-05-05 18:22 60.29002 5.22252 173 ft 17 kts 166°
2026-05-05 18:22 60.28885 5.22302 171 ft 17 kts 170°
2026-05-05 18:23 60.28772 5.22335 170 ft 16 kts 172°
2026-05-05 18:23 60.28702 5.22425 171 ft 9 kts 70°
2026-05-05 18:23 60.28731 5.22480 174 ft 3 kts 35°
2026-05-05 18:23 60.28760 5.22518 175 ft 8 kts 32°
2026-05-05 18:24 60.28818 5.22597 175 ft 7 kts 36°
2026-05-05 18:24 60.28832 5.22617 175 ft 0 kts 33°